This demonstration page uses our WeatherBlox Daily Observations layout. Learn more.

Left ArrowRight Arrow

Hourly Observations for September 13, 2020

Temp ( °F °C ) Dew Point ( °F °C ) Humidity (%) Winds ( mph kmh ) Pressure ( in mb ) Visibility ( mi km ) Precip ( " mm )
12:54 am 00:54 Clear 50 10 47 8.3 89 89 N 3 6 30.06 1018 10 16.0934 0 0
1:54 am 01:54 Clear 49 9.4 46 7.8 90 90 Calm 30.07 1018 10 16.0934 0 0
2:54 am 02:54 Clear 49 9.4 46 7.8 90 90 Calm 30.07 1018 9 14.48406 0 0
3:54 am 03:54 Clear 51 10.6 47 8.3 86 86 Calm 30.08 1019 10 16.0934 0 0
4:54 am 04:54 Clear 47 8.3 45 7.2 93 93 Calm 30.1 1019 9 14.48406 0 0
5:54 am 05:54 Clear 47 8.3 46 7.8 97 97 Calm 30.12 1020 9 14.48406 0 0
6:54 am 06:54 Clear 47 8.3 44 6.7 90 90 Calm 30.13 1020 10 16.0934 0 0
7:54 am 07:54 Sunny 50 10 48 8.9 93 93 Calm 30.15 1021 8 12.87472 0 0
8:54 am 08:54 Sunny 58 14.4 51 10.6 78 78 Calm 30.15 1021 8 12.87472 0 0
9:54 am 09:54 Sunny 63 17.2 55 12.8 76 76 Calm 30.16 1021 8 12.87472 0 0
10:54 am 10:54 Sunny 71 21.7 54 12.2 55 55 SW 6 9 30.16 1021 9 14.48406 0 0
11:54 am 11:54 Sunny 74 23.3 54 12.2 50 50 SSW 3 6 30.15 1021 9 14.48406 0 0
12:54 pm 12:54 Sunny 80 26.7 52 11.1 38 38 undefined N/A 30.14 1021 9 14.48406 0 0
1:54 pm 13:54 Sunny 80 26.7 53 11.7 39 39 WSW 3 6 30.13 1020 10 16.0934 0 0
2:54 pm 14:54 Sunny 82 27.8 52 11.1 35 35 Calm 30.12 1020 10 16.0934 0 0
3:54 pm 15:54 Sunny 83 28.3 52 11.1 34 34 SE 3 6 30.11 1020 9 14.48406 0 0
4:54 pm 16:54 Sunny 83 28.3 51 10.6 33 33 Calm 30.12 1020 9 14.48406 0 0
5:54 pm 17:54 Sunny 83 28.3 52 11.1 34 34 E 5 7 30.13 1020 9 14.48406 0 0
6:54 pm 18:54 Sunny 78 25.6 54 12.2 43 43 ESE 6 9 30.14 1021 9 14.48406 0 0
7:54 pm 19:54 Clear 72 22.2 54 12.2 53 53 SE 7 11 30.16 1021 10 16.0934 0 0
8:54 pm 20:54 Clear 66 18.9 55 12.8 68 68 SE 5 7 30.18 1022 10 16.0934 0 0
9:54 pm 21:54 Clear 66 18.9 56 13.3 70 70 SSE 5 7 30.19 1022 10 16.0934 0 0
10:54 pm 22:54 Clear 63 17.2 55 12.8 76 76 S 6 9 30.19 1023 10 16.0934 0 0
11:54 pm 23:54 Clear 62 16.7 55 12.8 78 78 S 3 6 30.21 1023 10 16.0934 0 0

Powered by AerisWeather